Regional Weather Roundup
Issued by NWS Northern Indiana

Home | Current Version | Previous Version | Graphics & Text | Print | Product List | Glossary On
Versions: 1 2 3 4 5 6 7 8 9 10 11 12 13 14 15 16 17 18 19 20 21 22 23 24 25 26 27 28 29 30 31 32 33 34 35 36 37 38 39 40 41 42 43 44 45 46 47 48 49 50
000
ASUS43 KIWX 290500
RWRIWX

KIWX WEATHER ROUNDUP
NATIONAL WEATHER SERVICE NORTHERN INDIANA
100 AM EDT TUE JUL 29 2014

NOTE: "FAIR" INDICATES FEW OR NO CLOUDS BELOW 12,000 FEET WITH NO
SIGNIFICANT WEATHER AND/OR OBSTRUCTIONS TO VISIBILITY.

* THESE STATIONS ARE NOT UNDER NWS QUALITY CONTROL. THEY ALSO MAY NOT
  REPORT WEATHER SUCH AS PRECIPITATION OR FOG.

INZ001>027-290600-
NORTHERN INDIANA

CITY           SKY/WX    TMP DP  RH WIND       PRES   REMARKS
VALPARAISO     CLOUDY    56  51  84 NW3       30.06F
SOUTH BEND     MOCLDY    56  48  74 NW6       30.06R
GOSHEN         CLEAR     51  47  86 NW7       30.04S
ANGOLA*        CLEAR     54  50  87 N5        30.03F
FORT WAYNE     PTCLDY    53  49  86 N3        30.04S
PERU/GRISSOM   CLEAR     54  51  90 NW3       30.05F

$$
INZ028>050-290600-
CENTRAL INDIANA

CITY           SKY/WX    TMP DP  RH WIND       PRES   REMARKS
LAFAYETTE      CLEAR     50  49  96 NW6       30.07S
KOKOMO*        CLEAR     54  48  82 NW6       30.05F
MUNCIE*        CLEAR     51  48  89 NW6       30.04S
INDIANAPOLIS   NOT AVBL

$$
MIZ043>046-050>051-056>058-064>065-071>073-077>080-290600-
SOUTHWEST LOWER MICHIGAN

CITY           SKY/WX    TMP DP  RH WIND       PRES   REMARKS
BATTLE CREEK   CLEAR     54  50  86 CALM      30.04S
BENTON HARBOR  CLEAR     50  48  93 CALM      30.05S
COLDWATER*     CLEAR     54  51  90 CALM      30.03F
HILLSDALE*     CLEAR     50  50 100 CALM      30.03S
HOLLAND        CLEAR     53  49  86 CALM      30.05S
GRAND RAPIDS   CLEAR     56  50  80 W6        30.04R
KALAMAZOO      CLEAR     53  48  83 CALM      30.04S
STURGIS*       CLEAR     50  48  93 CALM      30.03F
THREE RIVERS*  FAIR      52  50  93 CALM      30.04F

$$
OHZ001>008-015>018-024>025-290600-
NORTHWEST OHIO

CITY           SKY/WX    TMP DP  RH WIND       PRES   REMARKS
DEFIANCE       CLEAR     57  50  77 N5        30.02R
FINDLAY        CLOUDY    62  50  64 N13       30.00R
TOLEDO EXPRESS CLEAR     55  50  83 NW3       30.01S
TOLEDO METCALF PTCLDY    58  48  69 N3        30.01S
LIMA           CLEAR     57  52  83 NW8       30.01R

$$
&&


USA.gov is the U.S. government's official web portal to all federal, state and local government web resources and services.